Location: Frydek-Mistek
(49.6830°N, 18.3330°E)
Time: 05:10:42
(UTC+02:00)

ISS - Pass Details

Date: 19 May 2021
Orbit: 417 x 422 km, 51.6° (Epoch: 13 June)

Event Time Altitude Azimuth Distance (km) Brightness Sun altitude
Rises 23:43:11 0° 282° (WNW) 2,368 0.4 -19.1°
Reaches altitude 10° 23:45:17 10° 285° (WNW) 1,504 -0.6 -19.2°
Maximum altitude 23:48:39 66° 8° (N) 465 -3.4 -19.3°
Enters shadow 23:50:11 29° 83° (E) 804 -2.4 -19.4°
